Regional Weather Roundup
Issued by NWS Northern Indiana

Home | Current Version | Previous Version | Graphics & Text | Print | Product List | Glossary On
Versions: 1 2 3 4 5 6 7 8 9 10 11 12 13 14 15 16 17 18 19 20 21 22 23 24 25 26 27 28 29 30 31 32 33 34 35 36 37 38 39 40 41 42 43 44 45 46 47 48 49 50
000
ASUS43 KIWX 240200
RWRIWX

KIWX WEATHER ROUNDUP
NATIONAL WEATHER SERVICE NORTHERN INDIANA
900 PM EST MON JAN 23 2017

NOTE: "FAIR" INDICATES FEW OR NO CLOUDS BELOW 12,000 FEET WITH NO
SIGNIFICANT WEATHER AND/OR OBSTRUCTIONS TO VISIBILITY.

* THESE STATIONS ARE NOT UNDER NWS QUALITY CONTROL. THEY ALSO MAY NOT
  REPORT WEATHER SUCH AS PRECIPITATION OR FOG.

INZ001>027-240300-
NORTHERN INDIANA

CITY           SKY/WX    TMP DP  RH WIND       PRES   REMARKS
SOUTH BEND     CLOUDY    37  37 100 N9        29.76S FOG
ELKHART*       CLOUDY    39  37  93 NW9       29.74S FOG
GOSHEN         CLOUDY    40  37  89 NW9       29.73S FOG
FORT WAYNE     LGT RAIN  42  40  92 NW10      29.72R

$$
INZ028>050-240300-
CENTRAL INDIANA

CITY           SKY/WX    TMP DP  RH WIND       PRES   REMARKS
LAFAYETTE      CLOUDY    39  37  92 NW6       29.79R
KOKOMO*        CLOUDY    39  38  96 NW10      29.75R FOG
MUNCIE*        CLOUDY    42  40  92 NW13      29.70S
INDIANAPOLIS   DRIZZLE   40  38  93 NW13      29.76R FOG

$$
MIZ043>046-050>051-056>058-064>065-071>073-077>080-240300-
SOUTHWEST LOWER MICHIGAN

CITY           SKY/WX    TMP DP  RH WIND       PRES   REMARKS
BATTLE CREEK   LGT RAIN  40  40 100 NW6       29.73R
BENTON HARBOR  CLOUDY    38  37  97 N5        29.77S FOG
COLDWATER*     LGT RAIN  40  40 100 NW6       29.72R
HILLSDALE*     RAIN      37  37 100 CALM      29.69S
HOLLAND        CLOUDY    39  37  92 NW5       29.76R
GRAND RAPIDS   LGT RAIN  40  38  93 NW6       29.74R
KALAMAZOO      LGT RAIN  41  38  89 NW8       29.74R FOG
STURGIS*       RAIN      39  39 100 N7        29.72R
THREE RIVERS*  LGT RAIN  40  40  97 NW6       29.74R

$$
OHZ001>008-015>018-024>025-240300-
NORTHWEST OHIO

CITY           SKY/WX    TMP DP  RH WIND       PRES   REMARKS
DEFIANCE       LGT RAIN  42  41  96 N5        29.71R FOG
FINDLAY        LGT RAIN  42  37  82 NE16      29.66S
TOLEDO EXPRESS LGT RAIN  42  42 100 NE6       29.70R FOG
TOLEDO METCALF LGT RAIN  42  42 100 NE6       29.70S FOG
LIMA           LGT RAIN  39  39 100 N13       29.67R

$$
AND FOR LAKE MICHIGAN COASTAL AND OPEN LAKE BUOY OBSERVATIONS

STATION/POSITION TEMP    WIND        PRES    VSBY  WAVE
                 AIR SEA DIR/SP/G                  HT/PER
                 (F)     (DEG/KT/KT) (MB)    (MI)  (FT/S)
CALUMET HARBOR    38     320/  4/  6 1008.4R
MICHIGAN CITY     37     350/ 11/ 12   N/A

$$
&&



USA.gov is the U.S. government's official web portal to all federal, state and local government web resources and services.